Time,TemperatureF,DewpointF,PressureIn,WindDirection,WindDirectionDegrees,WindSpeedMPH,WindSpeedGustMPH,Humidity,HourlyPrecipIn,Conditions,Clouds,dailyrainin,SolarRadiationWatts/m^2,SoftwareType,DateUTC
2013-10-21 00:00:00,55.1,52.5,30.07,NNE,25,0.0,0.0,91,0.00,,---,0.00,0.00,VWS V14.01,2013-10-21 04:00:00,
2013-10-21 00:01:00,55.1,52.5,30.07,NNE,25,0.0,0.0,91,0.00,,---,0.00,0.00,VWS V14.01,2013-10-21 04:01:00,
2013-10-21 00:02:00,55.1,52.5,30.07,NNE,25,0.0,0.0,91,0.00,,---,0.00,0.00,VWS V14.01,2013-10-21 04:02:00,
2013-10-21 00:04:00,55.0,52.4,30.07,NNE,25,0.0,0.0,91,0.00,,---,0.00,0.00,VWS V14.01,2013-10-21 04:04:00,
2013-10-21 00:05:00,54.9,52.3,30.07,NNE,25,0.0,0.0,91,0.00,,---,0.00,0.00,VWS V14.01,2013-10-21 04:05:00,
2013-10-21 00:08:00,54.8,52.2,30.07,NNE,25,0.0,0.0,91,0.00,,---,0.00,0.00,VWS V14.01,2013-10-21 04:08:00,
2013-10-21 00:10:00,54.9,52.3,30.07,NNE,25,0.0,0.0,91,0.00,,---,0.00,0.00,VWS V14.01,2013-10-21 04:10:00,
2013-10-21 00:13:00,54.9,52.3,30.07,NNE,25,0.0,0.0,91,0.00,,---,0.00,0.00,VWS V14.01,2013-10-21 04:13:00,
2013-10-21 00:15:00,54.8,52.2,30.07,NNE,25,0.0,0.0,91,0.00,,---,0.00,0.00,VWS V14.01,2013-10-21 04:15:00,
2013-10-21 00:18:00,54.6,52.0,30.07,NNE,25,0.0,0.0,91,0.00,,---,0.00,0.00,VWS V14.01,2013-10-21 04:18:00,
2013-10-21 00:20:00,54.6,52.0,30.07,NNE,25,0.0,0.0,91,0.00,,---,0.00,0.00,VWS V14.01,2013-10-21 04:20:00,
2013-10-21 00:23:00,54.4,52.1,30.07,NNE,25,0.0,0.0,92,0.00,,---,0.00,0.00,VWS V14.01,2013-10-21 04:23:00,
2013-10-21 00:25:00,54.3,52.0,30.07,NNE,25,0.0,0.0,92,0.00,,---,0.00,0.00,VWS V14.01,2013-10-21 04:25:00,
2013-10-21 00:28:00,54.0,51.7,30.07,NNE,25,0.0,0.0,92,0.00,,---,0.00,0.00,VWS V14.01,2013-10-21 04:28:00,
2013-10-21 00:30:00,53.9,51.6,30.07,NNE,25,0.0,0.0,92,0.00,,---,0.00,0.00,VWS V14.01,2013-10-21 04:30:00,
2013-10-21 00:33:00,53.8,51.5,30.07,NNE,25,0.0,0.0,92,0.00,,---,0.00,0.00,VWS V14.01,2013-10-21 04:33:00,
2013-10-21 00:35:00,53.8,51.8,30.07,NNE,25,0.0,0.0,93,0.00,,---,0.00,0.00,VWS V14.01,2013-10-21 04:35:00,
2013-10-21 00:39:00,53.8,51.8,30.07,NNE,25,0.0,0.0,93,0.00,,---,0.00,0.00,VWS V14.01,2013-10-21 04:39:00,
2013-10-21 00:40:00,53.9,51.9,30.07,NNE,25,0.0,0.0,93,0.00,,---,0.00,0.00,VWS V14.01,2013-10-21 04:40:00,
2013-10-21 00:44:00,53.8,51.8,30.07,NNE,25,0.0,0.0,93,0.00,,---,0.00,0.00,VWS V14.01,2013-10-21 04:44:00,
2013-10-21 00:45:00,53.7,51.7,30.07,NNE,25,0.0,0.0,93,0.00,,---,0.00,0.00,VWS V14.01,2013-10-21 04:45:00,
2013-10-21 00:49:00,53.7,51.7,30.07,NNE,25,0.0,0.0,93,0.00,,---,0.00,0.00,VWS V14.01,2013-10-21 04:49:00,
2013-10-21 00:50:00,53.7,51.7,30.07,NNE,25,0.0,0.0,93,0.00,,---,0.00,0.00,VWS V14.01,2013-10-21 04:50:00,
2013-10-21 00:54:00,53.6,51.6,30.07,NNE,25,0.0,0.0,93,0.00,,---,0.00,0.00,VWS V14.01,2013-10-21 04:54:00,
2013-10-21 00:55:00,53.6,51.6,30.07,NNE,25,0.0,0.0,93,0.00,,---,0.00,0.00,VWS V14.01,2013-10-21 04:55:00,
2013-10-21 00:59:00,53.6,51.6,30.07,NNE,25,0.0,0.0,93,0.00,,---,0.00,0.00,VWS V14.01,2013-10-21 04:59:00,
2013-10-21 01:00:00,53.5,51.5,30.07,NNE,25,0.0,0.0,93,0.00,,---,0.00,0.00,VWS V14.01,2013-10-21 05:00:00,
2013-10-21 01:04:00,53.3,51.3,30.06,NNE,25,0.0,0.0,93,0.00,,---,0.00,0.00,VWS V14.01,2013-10-21 05:04:00,
2013-10-21 01:05:00,53.3,51.3,30.06,NNE,25,0.0,0.0,93,0.00,,---,0.00,0.00,VWS V14.01,2013-10-21 05:05:00,
2013-10-21 01:09:00,53.3,51.3,30.07,NNE,25,0.0,0.0,93,0.00,,---,0.00,0.00,VWS V14.01,2013-10-21 05:09:00,
2013-10-21 01:10:00,53.3,51.3,30.07,NNE,25,0.0,0.0,93,0.00,,---,0.00,0.00,VWS V14.01,2013-10-21 05:10:00,
2013-10-21 01:14:00,53.3,51.3,30.07,NNE,25,0.0,0.0,93,0.00,,---,0.00,0.00,VWS V14.01,2013-10-21 05:14:00,
2013-10-21 01:15:00,53.3,51.6,30.07,NNE,25,0.0,0.0,94,0.00,,---,0.00,0.00,VWS V14.01,2013-10-21 05:15:00,
2013-10-21 01:20:00,53.1,51.4,30.07,NNE,25,0.0,0.0,94,0.00,,---,0.00,0.00,VWS V14.01,2013-10-21 05:20:00,
2013-10-21 01:25:00,52.9,51.2,30.07,NNE,25,0.0,0.0,94,0.00,,---,0.00,0.00,VWS V14.01,2013-10-21 05:25:00,
2013-10-21 01:30:00,52.7,51.0,30.07,NNE,25,0.0,0.0,94,0.00,,---,0.00,0.00,VWS V14.01,2013-10-21 05:30:00,
2013-10-21 01:35:00,52.7,51.0,30.07,NNE,25,0.0,0.0,94,0.00,,---,0.00,0.00,VWS V14.01,2013-10-21 05:35:00,
2013-10-21 01:40:00,52.8,51.1,30.07,NNE,25,0.0,0.0,94,0.00,,---,0.00,0.00,VWS V14.01,2013-10-21 05:40:00,
2013-10-21 01:45:00,52.8,51.1,30.06,NNE,25,0.0,0.0,94,0.00,,---,0.00,0.00,VWS V14.01,2013-10-21 05:45:00,
2013-10-21 01:50:00,52.7,51.0,30.07,NNE,25,0.0,0.0,94,0.00,,---,0.00,0.00,VWS V14.01,2013-10-21 05:50:00,
2013-10-21 01:55:00,52.6,50.9,30.07,NNE,25,0.0,0.0,94,0.00,,---,0.00,0.00,VWS V14.01,2013-10-21 05:55:00,
2013-10-21 02:00:00,52.6,50.9,30.07,NNE,25,0.0,0.0,94,0.00,,---,0.00,0.00,VWS V14.01,2013-10-21 06:00:00,
2013-10-21 02:05:00,52.3,50.6,30.07,NNE,25,0.0,0.0,94,0.00,,---,0.00,0.00,VWS V14.01,2013-10-21 06:05:00,
2013-10-21 02:10:00,51.9,50.2,30.07,NNE,25,0.0,0.0,94,0.00,,---,0.00,0.00,VWS V14.01,2013-10-21 06:10:00,
2013-10-21 02:15:00,51.9,50.2,30.07,NNE,25,0.0,0.0,94,0.00,,---,0.00,0.00,VWS V14.01,2013-10-21 06:15:00,
2013-10-21 02:20:00,51.7,50.0,30.06,NNE,25,0.0,0.0,94,0.00,,---,0.00,0.00,VWS V14.01,2013-10-21 06:20:00,
2013-10-21 02:25:00,52.0,50.6,30.07,NNE,25,0.0,0.0,95,0.00,,---,0.00,0.00,VWS V14.01,2013-10-21 06:25:00,
2013-10-21 02:30:00,51.7,50.0,30.07,NNE,25,0.0,0.0,94,0.00,,---,0.00,0.00,VWS V14.01,2013-10-21 06:30:00,
2013-10-21 02:35:00,51.5,50.1,30.07,NNE,25,0.0,0.0,95,0.00,,---,0.00,0.00,VWS V14.01,2013-10-21 06:35:00,
2013-10-21 02:40:00,51.8,50.4,30.07,NNE,25,0.0,0.0,95,0.00,,---,0.00,0.00,VWS V14.01,2013-10-21 06:40:00,
2013-10-21 02:41:00,51.8,50.4,30.07,NNE,25,0.0,0.0,95,0.00,,---,0.00,0.00,VWS V14.01,2013-10-21 06:41:00,
2013-10-21 02:45:00,51.8,50.4,30.07,NNE,25,0.0,0.0,95,0.00,,---,0.00,0.00,VWS V14.01,2013-10-21 06:45:00,
2013-10-21 02:46:00,51.9,50.5,30.07,NNE,25,0.0,0.0,95,0.00,,---,0.00,0.00,VWS V14.01,2013-10-21 06:46:00,
2013-10-21 02:50:00,51.9,50.5,30.07,NNE,25,0.0,0.0,95,0.00,,---,0.00,0.00,VWS V14.01,2013-10-21 06:50:00,
2013-10-21 02:51:00,51.9,50.5,30.07,NNE,25,0.0,0.0,95,0.00,,---,0.00,0.00,VWS V14.01,2013-10-21 06:51:00,
2013-10-21 02:55:00,51.7,50.3,30.07,NNE,25,0.0,0.0,95,0.00,,---,0.00,0.00,VWS V14.01,2013-10-21 06:55:00,
2013-10-21 02:56:00,51.7,50.3,30.07,NNE,25,0.0,0.0,95,0.00,,---,0.00,0.00,VWS V14.01,2013-10-21 06:56:00,
2013-10-21 03:00:00,51.7,50.3,30.07,NNE,25,0.0,0.0,95,0.00,,---,0.00,0.00,VWS V14.01,2013-10-21 07:00:00,
2013-10-21 03:01:00,51.7,50.3,30.07,NNE,25,0.0,0.0,95,0.00,,---,0.00,0.00,VWS V14.01,2013-10-21 07:01:00,
2013-10-21 03:05:00,51.9,50.5,30.07,NNE,25,0.0,0.0,95,0.00,,---,0.00,0.00,VWS V14.01,2013-10-21 07:05:00,
2013-10-21 03:06:00,51.9,50.5,30.07,NNE,25,0.0,0.0,95,0.00,,---,0.00,0.00,VWS V14.01,2013-10-21 07:06:00,
2013-10-21 03:10:00,52.0,50.6,30.07,NNE,25,0.0,0.0,95,0.00,,---,0.00,0.00,VWS V14.01,2013-10-21 07:10:00,
2013-10-21 03:11:00,52.0,50.6,30.07,NNE,25,0.0,0.0,95,0.00,,---,0.00,0.00,VWS V14.01,2013-10-21 07:11:00,
2013-10-21 03:15:00,52.1,50.7,30.07,NNE,25,0.0,0.0,95,0.00,,---,0.00,0.00,VWS V14.01,2013-10-21 07:15:00,
2013-10-21 03:16:00,52.1,50.7,30.07,NNE,25,0.0,0.0,95,0.00,,---,0.00,0.00,VWS V14.01,2013-10-21 07:16:00,
2013-10-21 03:20:00,52.2,50.8,30.07,NNE,25,0.0,0.0,95,0.00,,---,0.00,0.00,VWS V14.01,2013-10-21 07:20:00,
2013-10-21 03:21:00,52.2,50.8,30.07,NNE,25,0.0,0.0,95,0.00,,---,0.00,0.00,VWS V14.01,2013-10-21 07:21:00,
2013-10-21 03:25:00,51.8,50.4,30.07,NNE,25,0.0,0.0,95,0.00,,---,0.00,0.00,VWS V14.01,2013-10-21 07:25:00,
2013-10-21 03:26:00,51.6,50.2,30.08,NNE,25,0.0,0.0,95,0.00,,---,0.00,0.00,VWS V14.01,2013-10-21 07:26:00,
2013-10-21 03:30:00,51.3,49.9,30.08,NNE,25,0.0,0.0,95,0.00,,---,0.00,0.00,VWS V14.01,2013-10-21 07:30:00,
2013-10-21 03:31:00,51.3,49.9,30.07,NNE,25,0.0,0.0,95,0.00,,---,0.00,0.00,VWS V14.01,2013-10-21 07:31:00,
2013-10-21 03:35:00,51.2,49.8,30.07,NNE,25,0.0,0.0,95,0.00,,---,0.00,0.00,VWS V14.01,2013-10-21 07:35:00,
2013-10-21 03:36:00,51.1,49.7,30.07,NNE,25,0.0,0.0,95,0.00,,---,0.00,0.00,VWS V14.01,2013-10-21 07:36:00,
2013-10-21 03:40:00,51.1,49.7,30.07,NNE,25,0.0,0.0,95,0.00,,---,0.00,0.00,VWS V14.01,2013-10-21 07:40:00,
2013-10-21 03:42:00,51.2,49.8,30.07,NNE,25,0.0,0.0,95,0.00,,---,0.00,0.00,VWS V14.01,2013-10-21 07:42:00,
2013-10-21 03:45:00,51.2,49.8,30.07,NNE,25,0.0,0.0,95,0.00,,---,0.00,0.00,VWS V14.01,2013-10-21 07:45:00,
2013-10-21 03:47:00,51.2,49.8,30.07,NNE,25,0.0,0.0,95,0.00,,---,0.00,0.00,VWS V14.01,2013-10-21 07:47:00,
2013-10-21 03:50:00,51.1,49.7,30.08,NNE,25,0.0,0.0,95,0.00,,---,0.00,0.00,VWS V14.01,2013-10-21 07:50:00,
2013-10-21 03:52:00,51.0,49.6,30.07,NNE,25,0.0,0.0,95,0.00,,---,0.00,0.00,VWS V14.01,2013-10-21 07:52:00,
2013-10-21 03:55:00,51.1,49.7,30.07,NNE,25,0.0,0.0,95,0.00,,---,0.00,0.00,VWS V14.01,2013-10-21 07:55:00,
2013-10-21 03:57:00,51.2,49.8,30.07,NNE,25,0.0,0.0,95,0.00,,---,0.00,0.00,VWS V14.01,2013-10-21 07:57:00,
2013-10-21 04:00:00,51.2,49.8,30.07,NNE,25,0.0,0.0,95,0.00,,---,0.00,0.00,VWS V14.01,2013-10-21 08:00:00,
2013-10-21 04:02:00,51.2,49.8,30.07,NNE,25,0.0,0.0,95,0.00,,---,0.00,0.00,VWS V14.01,2013-10-21 08:02:00,
2013-10-21 04:05:00,51.0,49.6,30.07,NNE,25,0.0,0.0,95,0.00,,---,0.00,0.00,VWS V14.01,2013-10-21 08:05:00,
2013-10-21 04:07:00,50.8,49.4,30.07,NNE,25,0.0,0.0,95,0.00,,---,0.00,0.00,VWS V14.01,2013-10-21 08:07:00,
2013-10-21 04:10:00,50.7,49.3,30.07,NNE,25,0.0,0.0,95,0.00,,---,0.00,0.00,VWS V14.01,2013-10-21 08:10:00,
2013-10-21 04:12:00,50.6,49.2,30.07,NNE,25,0.0,0.0,95,0.00,,---,0.00,0.00,VWS V14.01,2013-10-21 08:12:00,
2013-10-21 04:15:00,50.5,49.1,30.07,NNE,25,0.0,0.0,95,0.00,,---,0.00,0.00,VWS V14.01,2013-10-21 08:15:00,
2013-10-21 04:17:00,50.6,49.2,30.06,NNE,25,0.0,0.0,95,0.00,,---,0.00,0.00,VWS V14.01,2013-10-21 08:17:00,
2013-10-21 04:20:00,50.6,49.2,30.07,NNE,25,0.0,0.0,95,0.00,,---,0.00,0.00,VWS V14.01,2013-10-21 08:20:00,
2013-10-21 04:22:00,50.4,49.0,30.07,NNE,25,0.0,0.0,95,0.00,,---,0.00,0.00,VWS V14.01,2013-10-21 08:22:00,
2013-10-21 04:25:00,50.3,48.9,30.07,NNE,25,0.0,0.0,95,0.00,,---,0.00,0.00,VWS V14.01,2013-10-21 08:25:00,
2013-10-21 04:27:00,50.1,48.7,30.06,NNE,25,0.0,0.0,95,0.00,,---,0.00,0.00,VWS V14.01,2013-10-21 08:27:00,
2013-10-21 04:30:00,50.2,48.8,30.06,NNE,25,0.0,0.0,95,0.00,,---,0.00,0.00,VWS V14.01,2013-10-21 08:30:00,
2013-10-21 04:33:00,50.3,48.9,30.06,NNE,25,0.0,0.0,95,0.00,,---,0.00,0.00,VWS V14.01,2013-10-21 08:33:00,
2013-10-21 04:35:00,50.3,49.2,30.06,NNE,25,0.0,0.0,96,0.00,,---,0.00,0.00,VWS V14.01,2013-10-21 08:35:00,
2013-10-21 04:38:00,50.2,48.8,30.06,NNE,25,0.0,0.0,95,0.00,,---,0.00,0.00,VWS V14.01,2013-10-21 08:38:00,
2013-10-21 04:40:00,49.9,48.5,30.06,NNE,25,0.0,0.0,95,0.00,,---,0.00,0.00,VWS V14.01,2013-10-21 08:40:00,
2013-10-21 04:43:00,49.9,48.5,30.07,NNE,25,0.0,0.0,95,0.00,,---,0.00,0.00,VWS V14.01,2013-10-21 08:43:00,
2013-10-21 04:45:00,50.0,48.6,30.07,NNE,25,0.0,0.0,95,0.00,,---,0.00,0.00,VWS V14.01,2013-10-21 08:45:00,
2013-10-21 04:48:00,50.0,48.6,30.07,NNE,25,0.0,0.0,95,0.00,,---,0.00,0.00,VWS V14.01,2013-10-21 08:48:00,
2013-10-21 04:50:00,50.1,48.7,30.07,NNE,25,0.0,0.0,95,0.00,,---,0.00,0.00,VWS V14.01,2013-10-21 08:50:00,
2013-10-21 04:53:00,50.0,48.6,30.08,NNE,25,0.0,0.0,95,0.00,,---,0.00,0.00,VWS V14.01,2013-10-21 08:53:00,
2013-10-21 04:55:00,49.9,48.5,30.08,NNE,25,0.0,0.0,95,0.00,,---,0.00,0.00,VWS V14.01,2013-10-21 08:55:00,
2013-10-21 04:58:00,49.7,48.6,30.08,NNE,25,0.0,0.0,96,0.00,,---,0.00,0.00,VWS V14.01,2013-10-21 08:58:00,
2013-10-21 05:00:00,49.6,48.5,30.08,NNE,25,0.0,0.0,96,0.00,,---,0.00,0.00,VWS V14.01,2013-10-21 09:00:00,
2013-10-21 05:03:00,49.6,48.5,30.09,NNE,25,0.0,0.0,96,0.00,,---,0.00,0.00,VWS V14.01,2013-10-21 09:03:00,
2013-10-21 05:05:00,49.6,48.5,30.09,NNE,25,0.0,0.0,96,0.00,,---,0.00,0.00,VWS V14.01,2013-10-21 09:05:00,
2013-10-21 05:08:00,49.7,48.6,30.08,NNE,25,0.0,0.0,96,0.00,,---,0.00,0.00,VWS V14.01,2013-10-21 09:08:00,
2013-10-21 05:10:00,49.7,48.6,30.08,NNE,25,0.0,0.0,96,0.00,,---,0.00,0.00,VWS V14.01,2013-10-21 09:10:00,
2013-10-21 05:14:00,49.8,48.7,30.08,NNE,25,0.0,0.0,96,0.00,,---,0.00,0.00,VWS V14.01,2013-10-21 09:14:00,
2013-10-21 05:15:00,49.7,48.6,30.08,NNE,25,0.0,0.0,96,0.00,,---,0.00,0.00,VWS V14.01,2013-10-21 09:15:00,
2013-10-21 05:19:00,49.8,48.7,30.08,NNE,25,0.0,0.0,96,0.00,,---,0.00,0.00,VWS V14.01,2013-10-21 09:19:00,
2013-10-21 05:20:00,49.8,48.7,30.08,NNE,25,0.0,0.0,96,0.00,,---,0.00,0.00,VWS V14.01,2013-10-21 09:20:00,
2013-10-21 05:24:00,50.0,48.9,30.08,NNE,25,0.0,0.0,96,0.00,,---,0.00,0.00,VWS V14.01,2013-10-21 09:24:00,
2013-10-21 05:25:00,50.0,48.9,30.08,NNE,25,0.0,0.0,96,0.00,,---,0.00,0.00,VWS V14.01,2013-10-21 09:25:00,
2013-10-21 05:29:00,50.1,49.0,30.08,NNE,25,0.0,0.0,96,0.00,,---,0.00,0.00,VWS V14.01,2013-10-21 09:29:00,
2013-10-21 05:30:00,50.0,48.9,30.08,NNE,25,0.0,0.0,96,0.00,,---,0.00,0.00,VWS V14.01,2013-10-21 09:30:00,
2013-10-21 05:34:00,50.1,49.0,30.08,NNE,25,0.0,0.0,96,0.00,,---,0.00,0.00,VWS V14.01,2013-10-21 09:34:00,
2013-10-21 05:35:00,50.1,49.0,30.08,NNE,25,0.0,0.0,96,0.00,,---,0.00,0.00,VWS V14.01,2013-10-21 09:35:00,
2013-10-21 05:39:00,50.1,49.0,30.08,NNE,25,0.0,0.0,96,0.00,,---,0.00,0.00,VWS V14.01,2013-10-21 09:39:00,
2013-10-21 05:40:00,50.0,48.9,30.08,NNE,25,0.0,0.0,96,0.00,,---,0.00,0.00,VWS V14.01,2013-10-21 09:40:00,
2013-10-21 05:44:00,50.0,48.9,30.09,NNE,25,0.0,0.0,96,0.00,,---,0.00,0.00,VWS V14.01,2013-10-21 09:44:00,
2013-10-21 05:45:00,50.0,48.9,30.09,NNE,25,0.0,0.0,96,0.00,,---,0.00,0.00,VWS V14.01,2013-10-21 09:45:00,
2013-10-21 05:49:00,50.1,49.0,30.09,NNE,25,0.0,0.0,96,0.00,,---,0.00,0.00,VWS V14.01,2013-10-21 09:49:00,
2013-10-21 05:50:00,50.1,49.0,30.09,NNE,25,0.0,0.0,96,0.00,,---,0.00,0.00,VWS V14.01,2013-10-21 09:50:00,
2013-10-21 05:54:00,49.9,48.8,30.09,NNE,25,0.0,0.0,96,0.00,,---,0.00,0.00,VWS V14.01,2013-10-21 09:54:00,
2013-10-21 05:55:00,49.9,48.8,30.09,NNE,25,0.0,0.0,96,0.00,,---,0.00,0.00,VWS V14.01,2013-10-21 09:55:00,
2013-10-21 05:59:00,49.8,48.7,30.09,NNE,25,0.0,0.0,96,0.00,,---,0.00,0.00,VWS V14.01,2013-10-21 09:59:00,
2013-10-21 06:00:00,49.8,48.7,30.09,NNE,25,0.0,0.0,96,0.00,,---,0.00,0.00,VWS V14.01,2013-10-21 10:00:00,
2013-10-21 06:05:00,49.9,48.8,30.09,NNE,25,0.0,0.0,96,0.00,,---,0.00,0.00,VWS V14.01,2013-10-21 10:05:00,
2013-10-21 06:10:00,50.0,48.9,30.09,NNE,25,0.0,0.0,96,0.00,,---,0.00,0.00,VWS V14.01,2013-10-21 10:10:00,
2013-10-21 06:15:00,49.9,48.8,30.09,NNE,25,0.0,0.0,96,0.00,,---,0.00,0.00,VWS V14.01,2013-10-21 10:15:00,
2013-10-21 06:20:00,49.9,48.8,30.10,NNE,25,0.0,0.0,96,0.00,,---,0.00,0.00,VWS V14.01,2013-10-21 10:20:00,
2013-10-21 06:25:00,50.0,48.9,30.10,NNE,25,0.0,0.0,96,0.00,,---,0.00,0.00,VWS V14.01,2013-10-21 10:25:00,
2013-10-21 06:30:00,50.1,49.0,30.09,NNE,25,0.0,0.0,96,0.00,,---,0.00,0.00,VWS V14.01,2013-10-21 10:30:00,
2013-10-21 06:35:00,50.1,49.0,30.09,NNE,25,0.0,0.0,96,0.00,,---,0.00,0.00,VWS V14.01,2013-10-21 10:35:00,
2013-10-21 06:40:00,50.1,49.0,30.10,NNE,25,0.0,0.0,96,0.00,,---,0.00,0.00,VWS V14.01,2013-10-21 10:40:00,
2013-10-21 06:45:00,50.1,49.0,30.10,NNE,25,0.0,0.0,96,0.00,,---,0.00,0.00,VWS V14.01,2013-10-21 10:45:00,
2013-10-21 06:50:00,50.0,48.9,30.10,NNE,25,0.0,0.0,96,0.00,,---,0.00,0.00,VWS V14.01,2013-10-21 10:50:00,
2013-10-21 06:55:00,50.0,48.9,30.09,NNE,25,0.0,0.0,96,0.00,,---,0.00,0.00,VWS V14.01,2013-10-21 10:55:00,
2013-10-21 07:00:00,49.9,48.8,30.09,NNE,25,0.0,0.0,96,0.00,,---,0.00,0.00,VWS V14.01,2013-10-21 11:00:00,
2013-10-21 07:05:00,49.8,48.7,30.09,NNE,25,0.0,0.0,96,0.00,,---,0.00,0.00,VWS V14.01,2013-10-21 11:05:00,
2013-10-21 07:10:00,49.9,48.8,30.10,NNE,25,0.0,0.0,96,0.00,,---,0.00,0.00,VWS V14.01,2013-10-21 11:10:00,
2013-10-21 07:15:00,49.9,48.8,30.10,NNE,25,0.0,0.0,96,0.00,,---,0.00,0.00,VWS V14.01,2013-10-21 11:15:00,
2013-10-21 07:16:00,49.9,48.8,30.10,NNE,25,0.0,0.0,96,0.00,,---,0.00,0.00,VWS V14.01,2013-10-21 11:16:00,
2013-10-21 07:20:00,50.0,48.9,30.09,NNE,25,0.0,0.0,96,0.00,,---,0.00,0.00,VWS V14.01,2013-10-21 11:20:00,
2013-10-21 07:21:00,50.0,48.9,30.09,NNE,25,0.0,0.0,96,0.00,,---,0.00,0.00,VWS V14.01,2013-10-21 11:21:00,
2013-10-21 07:25:00,49.9,48.8,30.09,NNE,25,0.0,0.0,96,0.00,,---,0.00,0.00,VWS V14.01,2013-10-21 11:25:00,
2013-10-21 07:26:00,49.9,48.8,30.09,NNE,25,0.0,0.0,96,0.00,,---,0.00,0.00,VWS V14.01,2013-10-21 11:26:00,
2013-10-21 07:30:00,49.9,48.8,30.09,NNE,25,0.0,0.0,96,0.00,,---,0.00,0.00,VWS V14.01,2013-10-21 11:30:00,
2013-10-21 07:31:00,49.8,48.7,30.10,NNE,25,0.0,0.0,96,0.00,,---,0.00,0.00,VWS V14.01,2013-10-21 11:31:00,
2013-10-21 07:35:00,49.8,48.7,30.09,NNE,25,0.0,0.0,96,0.00,,---,0.00,0.00,VWS V14.01,2013-10-21 11:35:00,
2013-10-21 07:36:00,49.9,48.8,30.09,NNE,25,0.0,0.0,96,0.00,,---,0.00,0.00,VWS V14.01,2013-10-21 11:36:00,
2013-10-21 07:40:00,49.8,48.7,30.10,NNE,25,0.0,0.0,96,0.00,,---,0.00,7.00,VWS V14.01,2013-10-21 11:40:00,
2013-10-21 07:41:00,49.8,48.7,30.09,NNE,25,0.0,0.0,96,0.00,,---,0.00,7.00,VWS V14.01,2013-10-21 11:41:00,
2013-10-21 07:45:00,49.8,48.7,30.10,NNE,25,0.0,0.0,96,0.00,,---,0.00,11.00,VWS V14.01,2013-10-21 11:45:00,
2013-10-21 07:46:00,49.7,48.6,30.10,NNE,25,0.0,0.0,96,0.00,,---,0.00,14.00,VWS V14.01,2013-10-21 11:46:00,
2013-10-21 07:50:00,49.8,48.7,30.10,NNE,25,0.0,0.0,96,0.00,,---,0.00,19.00,VWS V14.01,2013-10-21 11:50:00,
2013-10-21 07:51:00,49.8,48.7,30.10,NNE,25,0.0,0.0,96,0.00,,---,0.00,19.00,VWS V14.01,2013-10-21 11:51:00,
2013-10-21 07:55:00,49.9,48.8,30.10,NNE,25,0.0,0.0,96,0.00,,---,0.00,23.00,VWS V14.01,2013-10-21 11:55:00,
2013-10-21 07:56:00,49.9,48.8,30.10,NNE,25,0.0,0.0,96,0.00,,---,0.00,25.00,VWS V14.01,2013-10-21 11:56:00,
2013-10-21 08:00:00,49.7,48.6,30.10,NNE,25,0.0,0.0,96,0.00,,---,0.00,23.00,VWS V14.01,2013-10-21 12:00:00,
2013-10-21 08:01:00,49.7,48.6,30.10,NNE,25,0.0,0.0,96,0.00,,---,0.00,23.00,VWS V14.01,2013-10-21 12:01:00,
2013-10-21 08:05:00,49.7,48.6,30.10,NNE,25,0.0,0.0,96,0.00,,---,0.00,26.00,VWS V14.01,2013-10-21 12:05:00,
2013-10-21 08:06:00,49.8,48.7,30.10,NNE,25,0.0,0.0,96,0.00,,---,0.00,28.00,VWS V14.01,2013-10-21 12:06:00,
2013-10-21 08:10:00,49.9,48.8,30.10,NNE,25,0.0,0.0,96,0.00,,---,0.00,33.00,VWS V14.01,2013-10-21 12:10:00,
2013-10-21 08:12:00,50.0,48.9,30.10,NNE,25,0.0,0.0,96,0.00,,---,0.00,35.00,VWS V14.01,2013-10-21 12:12:00,
2013-10-21 08:15:00,50.1,49.0,30.10,NNE,25,0.0,0.0,96,0.00,,---,0.00,42.00,VWS V14.01,2013-10-21 12:15:00,
2013-10-21 08:17:00,50.2,49.1,30.11,NNE,25,0.0,0.0,96,0.00,,---,0.00,44.00,VWS V14.01,2013-10-21 12:17:00,
2013-10-21 08:20:00,50.2,49.1,30.11,NNE,25,0.0,0.0,96,0.00,,---,0.00,42.00,VWS V14.01,2013-10-21 12:20:00,
2013-10-21 08:22:00,50.3,49.2,30.10,NNE,25,0.0,0.0,96,0.00,,---,0.00,42.00,VWS V14.01,2013-10-21 12:22:00,
2013-10-21 08:25:00,50.5,49.4,30.10,NNE,25,0.0,0.0,96,0.00,,---,0.00,47.00,VWS V14.01,2013-10-21 12:25:00,
2013-10-21 08:27:00,50.5,49.4,30.11,NNE,25,0.0,0.0,96,0.00,,---,0.00,51.00,VWS V14.01,2013-10-21 12:27:00,
2013-10-21 08:30:00,50.7,49.6,30.11,NNE,25,0.0,0.0,96,0.00,,---,0.00,49.00,VWS V14.01,2013-10-21 12:30:00,
2013-10-21 08:32:00,50.8,49.7,30.12,NNE,25,0.0,0.0,96,0.00,,---,0.00,44.00,VWS V14.01,2013-10-21 12:32:00,
2013-10-21 08:35:00,50.8,49.7,30.12,NNE,25,0.0,0.0,96,0.00,,---,0.00,33.00,VWS V14.01,2013-10-21 12:35:00,
2013-10-21 08:37:00,50.8,49.7,30.12,NNE,25,0.0,0.0,96,0.00,,---,0.00,35.00,VWS V14.01,2013-10-21 12:37:00,
2013-10-21 08:40:00,50.8,49.7,30.12,NNE,25,0.0,0.0,96,0.00,,---,0.00,46.00,VWS V14.01,2013-10-21 12:40:00,
2013-10-21 08:42:00,50.9,49.8,30.12,NNE,25,0.0,0.0,96,0.00,,---,0.00,56.00,VWS V14.01,2013-10-21 12:42:00,
2013-10-21 08:45:00,51.0,49.9,30.12,NNE,25,0.0,0.0,96,0.00,,---,0.00,60.00,VWS V14.01,2013-10-21 12:45:00,
2013-10-21 08:47:00,51.0,49.9,30.11,NNE,25,0.0,0.0,96,0.00,,---,0.00,58.00,VWS V14.01,2013-10-21 12:47:00,
2013-10-21 08:50:00,51.1,50.0,30.11,NNE,25,0.0,0.0,96,0.00,,---,0.00,53.00,VWS V14.01,2013-10-21 12:50:00,
2013-10-21 08:53:00,51.2,50.1,30.12,NNE,25,0.0,0.0,96,0.00,,---,0.00,58.00,VWS V14.01,2013-10-21 12:53:00,
2013-10-21 08:55:00,51.3,50.2,30.11,NNE,25,0.0,0.0,96,0.00,,---,0.00,63.00,VWS V14.01,2013-10-21 12:55:00,
2013-10-21 08:58:00,51.3,50.2,30.11,NNE,25,0.0,0.0,96,0.00,,---,0.00,58.00,VWS V14.01,2013-10-21 12:58:00,
2013-10-21 09:00:00,51.4,50.3,30.11,NNE,25,0.0,0.0,96,0.00,,---,0.00,54.00,VWS V14.01,2013-10-21 13:00:00,
2013-10-21 09:03:00,51.5,50.4,30.11,NNE,25,0.0,0.0,96,0.00,,---,0.00,95.00,VWS V14.01,2013-10-21 13:03:00,
2013-10-21 09:05:00,51.8,50.7,30.12,NNE,25,0.0,0.0,96,0.00,,---,0.00,95.00,VWS V14.01,2013-10-21 13:05:00,
2013-10-21 09:08:00,52.2,51.1,30.12,NNE,25,0.0,0.0,96,0.00,,---,0.00,134.00,VWS V14.01,2013-10-21 13:08:00,
2013-10-21 09:10:00,52.4,51.3,30.12,NNE,25,0.0,0.0,96,0.00,,---,0.00,105.00,VWS V14.01,2013-10-21 13:10:00,
2013-10-21 09:13:00,52.8,51.7,30.13,NNE,25,0.0,0.0,96,0.00,,---,0.00,278.00,VWS V14.01,2013-10-21 13:13:00,
2013-10-21 09:15:00,53.3,52.2,30.12,NNE,25,0.0,0.0,96,0.00,,---,0.00,123.00,VWS V14.01,2013-10-21 13:15:00,
2013-10-21 09:18:00,53.6,52.5,30.12,NNE,25,0.0,0.0,96,0.00,,---,0.00,109.00,VWS V14.01,2013-10-21 13:18:00,
2013-10-21 09:20:00,53.7,52.6,30.12,NNE,25,0.0,0.0,96,0.00,,---,0.00,98.00,VWS V14.01,2013-10-21 13:20:00,
2013-10-21 09:23:00,53.9,52.8,30.13,NNE,25,0.0,0.0,96,0.00,,---,0.00,83.00,VWS V14.01,2013-10-21 13:23:00,
2013-10-21 09:25:00,54.0,52.6,30.13,NNE,25,0.0,0.0,95,0.00,,---,0.00,74.00,VWS V14.01,2013-10-21 13:25:00,
2013-10-21 09:28:00,54.1,52.7,30.13,NNE,25,0.0,0.0,95,0.00,,---,0.00,65.00,VWS V14.01,2013-10-21 13:28:00,
2013-10-21 09:30:00,54.2,52.8,30.13,NNE,25,0.0,0.0,95,0.00,,---,0.00,65.00,VWS V14.01,2013-10-21 13:30:00,
2013-10-21 09:33:00,54.3,52.6,30.13,ENE,65,0.0,0.0,94,0.00,,---,0.00,113.00,VWS V14.01,2013-10-21 13:33:00,
2013-10-21 09:35:00,54.5,52.8,30.13,ENE,65,0.0,0.0,94,0.00,,---,0.00,380.00,VWS V14.01,2013-10-21 13:35:00,
2013-10-21 09:38:00,55.0,53.3,30.13,ENE,65,0.0,0.0,94,0.00,,---,0.00,95.00,VWS V14.01,2013-10-21 13:38:00,
2013-10-21 09:40:00,55.1,53.4,30.13,ENE,65,0.0,0.0,94,0.00,,---,0.00,93.00,VWS V14.01,2013-10-21 13:40:00,
2013-10-21 09:43:00,55.3,53.3,30.13,ENE,65,0.0,0.0,93,0.00,,---,0.00,141.00,VWS V14.01,2013-10-21 13:43:00,
2013-10-21 09:45:00,55.5,53.5,30.13,ENE,65,0.0,0.0,93,0.00,,---,0.00,178.00,VWS V14.01,2013-10-21 13:45:00,
2013-10-21 09:48:00,55.9,53.6,30.13,ENE,61,0.0,0.0,92,0.00,,---,0.00,211.00,VWS V14.01,2013-10-21 13:48:00,
2013-10-21 09:50:00,56.0,53.7,30.13,ENE,65,0.0,0.0,92,0.00,,---,0.00,236.00,VWS V14.01,2013-10-21 13:50:00,
2013-10-21 09:54:00,56.6,54.0,30.13,ENE,61,0.0,0.0,91,0.00,,---,0.00,332.00,VWS V14.01,2013-10-21 13:54:00,
2013-10-21 09:55:00,56.9,54.3,30.13,ENE,65,0.0,0.0,91,0.00,,---,0.00,294.00,VWS V14.01,2013-10-21 13:55:00,
2013-10-21 09:59:00,57.7,55.1,30.12,ENE,61,0.0,0.0,91,0.00,,---,0.00,271.00,VWS V14.01,2013-10-21 13:59:00,
2013-10-21 10:00:00,57.8,54.9,30.12,ENE,65,0.0,0.0,90,0.00,,---,0.00,271.00,VWS V14.01,2013-10-21 14:00:00,
2013-10-21 10:04:00,58.0,54.5,30.13,ENE,65,0.0,0.0,88,0.00,,---,0.00,376.00,VWS V14.01,2013-10-21 14:04:00,
2013-10-21 10:05:00,58.3,55.1,30.13,ENE,65,0.0,0.0,89,0.00,,---,0.00,334.00,VWS V14.01,2013-10-21 14:05:00,
2013-10-21 10:09:00,58.8,55.3,30.13,ENE,64,0.0,0.0,88,0.00,,---,0.00,250.00,VWS V14.01,2013-10-21 14:09:00,
2013-10-21 10:10:00,58.9,55.0,30.13,ENE,64,0.0,0.0,87,0.00,,---,0.00,243.00,VWS V14.01,2013-10-21 14:10:00,
2013-10-21 10:14:00,59.4,55.5,30.13,ENE,65,0.0,0.0,87,0.00,,---,0.00,181.00,VWS V14.01,2013-10-21 14:14:00,
2013-10-21 10:15:00,59.4,55.2,30.13,ENE,62,0.0,0.0,86,0.00,,---,0.00,176.00,VWS V14.01,2013-10-21 14:15:00,
2013-10-21 10:19:00,59.5,54.7,30.13,ENE,66,0.0,0.0,84,0.00,,---,0.00,163.00,VWS V14.01,2013-10-21 14:19:00,
2013-10-21 10:20:00,59.5,55.0,30.13,ENE,66,0.0,0.0,85,0.00,,---,0.00,163.00,VWS V14.01,2013-10-21 14:20:00,
2013-10-21 10:24:00,59.6,55.1,30.13,ENE,69,0.0,1.0,85,0.00,,---,0.00,169.00,VWS V14.01,2013-10-21 14:24:00,
2013-10-21 10:25:00,59.6,54.8,30.13,ENE,69,2.0,4.0,84,0.00,,---,0.00,169.00,VWS V14.01,2013-10-21 14:25:00,
2013-10-21 10:29:00,59.5,54.3,30.13,ENE,70,0.0,4.0,83,0.00,,---,0.00,174.00,VWS V14.01,2013-10-21 14:29:00,
2013-10-21 10:30:00,59.5,54.7,30.13,ENE,70,0.0,4.0,84,0.00,,---,0.00,174.00,VWS V14.01,2013-10-21 14:30:00,
2013-10-21 10:34:00,59.6,54.8,30.13,ENE,70,0.0,0.0,84,0.00,,---,0.00,230.00,VWS V14.01,2013-10-21 14:34:00,
2013-10-21 10:35:00,59.6,54.8,30.13,ENE,70,0.0,0.0,84,0.00,,---,0.00,230.00,VWS V14.01,2013-10-21 14:35:00,
2013-10-21 10:39:00,59.8,55.3,30.13,ENE,70,0.0,0.0,85,0.00,,---,0.00,232.00,VWS V14.01,2013-10-21 14:39:00,
2013-10-21 10:40:00,59.9,55.4,30.13,ENE,70,0.0,0.0,85,0.00,,---,0.00,232.00,VWS V14.01,2013-10-21 14:40:00,
2013-10-21 10:45:00,60.3,55.5,30.12,ENE,70,0.0,0.0,84,0.00,,---,0.00,295.00,VWS V14.01,2013-10-21 14:45:00,
2013-10-21 10:50:00,60.7,55.5,30.12,ENE,70,0.0,0.0,83,0.00,,---,0.00,323.00,VWS V14.01,2013-10-21 14:50:00,
2013-10-21 10:55:00,61.6,56.4,30.12,ENE,70,0.0,0.0,83,0.00,,---,0.00,265.00,VWS V14.01,2013-10-21 14:55:00,
2013-10-21 11:00:00,61.5,56.0,30.12,ENE,70,0.0,0.0,82,0.00,,---,0.00,272.00,VWS V14.01,2013-10-21 15:00:00,
2013-10-21 11:05:00,62.1,56.2,30.13,ENE,70,0.0,0.0,81,0.00,,---,0.00,359.00,VWS V14.01,2013-10-21 15:05:00,
2013-10-21 11:10:00,62.7,56.8,30.13,ENE,71,0.0,0.0,81,0.00,,---,0.00,323.00,VWS V14.01,2013-10-21 15:10:00,
2013-10-21 11:15:00,62.7,56.5,30.13,ENE,68,0.0,1.0,80,0.00,,---,0.00,319.00,VWS V14.01,2013-10-21 15:15:00,
2013-10-21 11:20:00,63.1,57.2,30.12,ENE,68,0.0,0.0,81,0.00,,---,0.00,298.00,VWS V14.01,2013-10-21 15:20:00,
2013-10-21 11:25:00,63.5,57.2,30.12,ENE,68,0.0,1.0,80,0.00,,---,0.00,271.00,VWS V14.01,2013-10-21 15:25:00,
2013-10-21 11:30:00,63.6,57.0,30.12,ENE,68,0.0,0.0,79,0.00,,---,0.00,281.00,VWS V14.01,2013-10-21 15:30:00,
2013-10-21 11:35:00,63.9,57.6,30.13,ENE,68,1.0,5.0,80,0.00,,---,0.00,316.00,VWS V14.01,2013-10-21 15:35:00,
2013-10-21 11:40:00,64.7,58.4,30.12,ENE,68,0.0,2.0,80,0.00,,---,0.00,339.00,VWS V14.01,2013-10-21 15:40:00,
2013-10-21 11:45:00,65.2,57.8,30.12,ENE,68,0.0,4.0,77,0.00,,---,0.00,395.00,VWS V14.01,2013-10-21 15:45:00,
2013-10-21 11:50:00,65.2,57.5,30.12,East,90,2.0,8.0,76,0.00,,---,0.00,365.00,VWS V14.01,2013-10-21 15:50:00,
2013-10-21 11:55:00,65.3,57.9,30.12,East,90,0.0,2.0,77,0.00,,---,0.00,323.00,VWS V14.01,2013-10-21 15:55:00,
2013-10-21 12:00:00,65.6,58.2,30.12,East,90,0.0,1.0,77,0.00,,---,0.00,322.00,VWS V14.01,2013-10-21 16:00:00,
2013-10-21 12:05:00,65.8,58.0,30.12,East,90,1.0,4.0,76,0.00,,---,0.00,343.00,VWS V14.01,2013-10-21 16:05:00,
2013-10-21 12:10:00,66.2,58.0,30.12,East,90,1.0,4.0,75,0.00,,---,0.00,317.00,VWS V14.01,2013-10-21 16:10:00,
2013-10-21 12:15:00,66.3,57.8,30.12,East,90,1.0,4.0,74,0.00,,---,0.00,303.00,VWS V14.01,2013-10-21 16:15:00,
2013-10-21 12:20:00,66.6,58.1,30.13,East,90,1.0,4.0,74,0.00,,---,0.00,444.00,VWS V14.01,2013-10-21 16:20:00,
2013-10-21 12:25:00,67.6,58.3,30.12,ESE,112,1.0,3.0,72,0.00,,---,0.00,550.00,VWS V14.01,2013-10-21 16:25:00,
2013-10-21 12:30:00,68.1,58.3,30.11,ESE,112,1.0,6.0,71,0.00,,---,0.00,675.00,VWS V14.01,2013-10-21 16:30:00,
2013-10-21 12:35:00,68.5,58.7,30.11,ESE,112,1.0,7.0,71,0.00,,---,0.00,609.00,VWS V14.01,2013-10-21 16:35:00,
2013-10-21 12:40:00,68.4,57.8,30.11,ESE,112,1.0,7.0,69,0.00,,---,0.00,408.00,VWS V14.01,2013-10-21 16:40:00,
2013-10-21 12:45:00,68.6,57.6,30.11,ESE,112,0.0,4.0,68,0.00,,---,0.00,406.00,VWS V14.01,2013-10-21 16:45:00,
2013-10-21 12:50:00,68.9,57.5,30.11,ESE,112,1.0,6.0,67,0.00,,---,0.00,504.00,VWS V14.01,2013-10-21 16:50:00,
2013-10-21 12:55:00,69.2,57.8,30.11,ESE,112,0.0,1.0,67,0.00,,---,0.00,377.00,VWS V14.01,2013-10-21 16:55:00,
2013-10-21 13:00:00,69.3,58.3,30.11,ESE,112,0.0,3.0,68,0.00,,---,0.00,412.00,VWS V14.01,2013-10-21 17:00:00,
2013-10-21 13:05:00,68.9,57.1,30.10,ESE,112,1.0,4.0,66,0.00,,---,0.00,319.00,VWS V14.01,2013-10-21 17:05:00,
2013-10-21 13:10:00,69.1,58.1,30.10,ESE,112,0.0,3.0,68,0.00,,---,0.00,390.00,VWS V14.01,2013-10-21 17:10:00,
2013-10-21 13:15:00,69.8,57.9,30.10,ESE,113,0.0,0.0,66,0.00,,---,0.00,364.00,VWS V14.01,2013-10-21 17:15:00,
2013-10-21 13:17:00,69.9,57.6,30.10,ESE,113,0.0,0.0,65,0.00,,---,0.00,438.00,VWS V14.01,2013-10-21 17:17:00,
2013-10-21 13:20:00,70.2,57.9,30.10,ESE,114,1.0,4.0,65,0.00,,---,0.00,631.00,VWS V14.01,2013-10-21 17:20:00,
2013-10-21 13:22:00,70.2,57.5,30.09,ESE,114,2.0,4.0,64,0.00,,---,0.00,420.00,VWS V14.01,2013-10-21 17:22:00,
2013-10-21 13:25:00,70.1,57.4,30.09,ESE,112,0.0,4.0,64,0.00,,---,0.00,533.00,VWS V14.01,2013-10-21 17:25:00,
2013-10-21 13:27:00,69.8,57.5,30.09,ESE,112,0.0,0.0,65,0.00,,---,0.00,343.00,VWS V14.01,2013-10-21 17:27:00,
2013-10-21 13:30:00,69.9,58.0,30.09,ESE,111,0.0,2.0,66,0.00,,---,0.00,418.00,VWS V14.01,2013-10-21 17:30:00,
2013-10-21 13:33:00,70.0,58.1,30.09,ESE,111,3.0,3.0,66,0.00,,---,0.00,439.00,VWS V14.01,2013-10-21 17:33:00,
2013-10-21 13:35:00,70.2,58.7,30.09,ESE,105,0.0,3.0,67,0.00,,---,0.00,664.00,VWS V14.01,2013-10-21 17:35:00,
2013-10-21 13:38:00,70.7,58.4,30.08,ESE,102,3.0,4.0,65,0.00,,---,0.00,768.00,VWS V14.01,2013-10-21 17:38:00,
2013-10-21 13:40:00,71.4,58.6,30.08,East,96,2.0,4.0,64,0.00,,---,0.00,659.00,VWS V14.01,2013-10-21 17:40:00,
2013-10-21 13:43:00,71.7,58.5,30.08,East,96,0.0,3.0,63,0.00,,---,0.00,519.00,VWS V14.01,2013-10-21 17:43:00,
2013-10-21 13:45:00,71.4,57.7,30.08,East,98,1.0,4.0,62,0.00,,---,0.00,439.00,VWS V14.01,2013-10-21 17:45:00,
2013-10-21 13:48:00,71.3,58.5,30.08,East,98,2.0,2.0,64,0.00,,---,0.00,413.00,VWS V14.01,2013-10-21 17:48:00,
2013-10-21 13:50:00,71.2,58.0,30.07,East,97,2.0,3.0,63,0.00,,---,0.00,392.00,VWS V14.01,2013-10-21 17:50:00,
2013-10-21 13:53:00,71.0,56.9,30.07,East,97,0.0,2.0,61,0.00,,---,0.00,448.00,VWS V14.01,2013-10-21 17:53:00,
2013-10-21 13:55:00,71.2,57.5,30.07,East,97,0.0,2.0,62,0.00,,---,0.00,555.00,VWS V14.01,2013-10-21 17:55:00,
2013-10-21 13:58:00,71.4,57.7,30.07,ENE,65,5.0,7.0,62,0.00,,---,0.00,464.00,VWS V14.01,2013-10-21 17:58:00,
2013-10-21 14:00:00,71.4,57.3,30.07,NNE,25,4.0,7.0,61,0.00,,---,0.00,473.00,VWS V14.01,2013-10-21 18:00:00,
2013-10-21 14:03:00,71.3,58.1,30.07,NE,38,0.0,6.0,63,0.00,,---,0.00,462.00,VWS V14.01,2013-10-21 18:03:00,
2013-10-21 14:05:00,71.4,58.6,30.07,NE,38,0.0,6.0,64,0.00,,---,0.00,390.00,VWS V14.01,2013-10-21 18:05:00,
2013-10-21 14:08:00,71.4,57.7,30.07,NE,38,0.0,1.0,62,0.00,,---,0.00,366.00,VWS V14.01,2013-10-21 18:08:00,
2013-10-21 14:10:00,71.2,57.5,30.07,NE,38,0.0,1.0,62,0.00,,---,0.00,401.00,VWS V14.01,2013-10-21 18:10:00,
2013-10-21 14:13:00,71.2,58.0,30.07,NE,38,0.0,0.0,63,0.00,,---,0.00,425.00,VWS V14.01,2013-10-21 18:13:00,
2013-10-21 14:15:00,71.2,58.4,30.07,NE,38,0.0,1.0,64,0.00,,---,0.00,425.00,VWS V14.01,2013-10-21 18:15:00,
2013-10-21 14:18:00,71.7,58.5,30.07,NE,37,0.0,1.0,63,0.00,,---,0.00,348.00,VWS V14.01,2013-10-21 18:18:00,
2013-10-21 14:20:00,71.7,58.0,30.07,NE,44,1.0,4.0,62,0.00,,---,0.00,350.00,VWS V14.01,2013-10-21 18:20:00,
2013-10-21 14:23:00,71.0,57.3,30.06,NE,44,0.0,3.0,62,0.00,,---,0.00,425.00,VWS V14.01,2013-10-21 18:23:00,
2013-10-21 14:25:00,70.8,58.5,30.06,NE,44,0.0,3.0,65,0.00,,---,0.00,418.00,VWS V14.01,2013-10-21 18:25:00,
2013-10-21 14:28:00,71.5,59.1,30.06,NE,44,0.0,0.0,65,0.00,,---,0.00,483.00,VWS V14.01,2013-10-21 18:28:00,
2013-10-21 14:30:00,71.7,58.5,30.06,NE,44,0.0,0.0,63,0.00,,---,0.00,482.00,VWS V14.01,2013-10-21 18:30:00,
2013-10-21 14:33:00,71.7,58.0,30.06,NE,44,0.0,0.0,62,0.00,,---,0.00,596.00,VWS V14.01,2013-10-21 18:33:00,
2013-10-21 14:35:00,71.7,58.0,30.06,NE,46,0.0,0.0,62,0.00,,---,0.00,631.00,VWS V14.01,2013-10-21 18:35:00,
2013-10-21 14:39:00,72.1,57.5,30.06,NE,42,0.0,5.0,60,0.00,,---,0.00,587.00,VWS V14.01,2013-10-21 18:39:00,
2013-10-21 14:40:00,72.1,57.5,30.06,NE,42,0.0,5.0,60,0.00,,---,0.00,492.00,VWS V14.01,2013-10-21 18:40:00,
2013-10-21 14:44:00,72.4,58.7,30.06,NE,44,4.0,4.0,62,0.00,,---,0.00,376.00,VWS V14.01,2013-10-21 18:44:00,
2013-10-21 14:45:00,72.3,58.1,30.06,NE,44,0.0,4.0,61,0.00,,---,0.00,355.00,VWS V14.01,2013-10-21 18:45:00,
2013-10-21 14:49:00,71.8,57.6,30.06,NE,44,0.0,1.0,61,0.00,,---,0.00,299.00,VWS V14.01,2013-10-21 18:49:00,
2013-10-21 14:50:00,71.9,58.2,30.06,NE,44,0.0,1.0,62,0.00,,---,0.00,315.00,VWS V14.01,2013-10-21 18:50:00,
2013-10-21 14:54:00,72.0,57.8,30.05,NE,44,0.0,0.0,61,0.00,,---,0.00,330.00,VWS V14.01,2013-10-21 18:54:00,
2013-10-21 14:55:00,72.0,57.4,30.05,NE,44,0.0,0.0,60,0.00,,---,0.00,341.00,VWS V14.01,2013-10-21 18:55:00,
2013-10-21 14:59:00,72.1,58.4,30.06,NE,44,0.0,0.0,62,0.00,,---,0.00,329.00,VWS V14.01,2013-10-21 18:59:00,
2013-10-21 15:00:00,72.1,58.4,30.06,NE,44,0.0,0.0,62,0.00,,---,0.00,336.00,VWS V14.01,2013-10-21 19:00:00,
2013-10-21 15:04:00,71.9,58.2,30.06,NE,44,0.0,3.0,62,0.00,,---,0.00,311.00,VWS V14.01,2013-10-21 19:04:00,
2013-10-21 15:05:00,71.9,58.2,30.06,NE,44,0.0,3.0,62,0.00,,---,0.00,316.00,VWS V14.01,2013-10-21 19:05:00,
2013-10-21 15:09:00,71.8,58.1,30.06,NE,44,0.0,0.0,62,0.00,,---,0.00,308.00,VWS V14.01,2013-10-21 19:09:00,
2013-10-21 15:10:00,71.9,58.2,30.06,NE,44,0.0,0.0,62,0.00,,---,0.00,308.00,VWS V14.01,2013-10-21 19:10:00,
2013-10-21 15:14:00,72.0,58.7,30.06,NE,44,0.0,0.0,63,0.00,,---,0.00,295.00,VWS V14.01,2013-10-21 19:14:00,
2013-10-21 15:15:00,72.1,58.8,30.06,NE,44,0.0,0.0,63,0.00,,---,0.00,294.00,VWS V14.01,2013-10-21 19:15:00,
2013-10-21 15:19:00,72.1,58.4,30.05,NE,34,0.0,6.0,62,0.00,,---,0.00,302.00,VWS V14.01,2013-10-21 19:19:00,
2013-10-21 15:20:00,72.1,58.4,30.05,NE,34,0.0,6.0,62,0.00,,---,0.00,309.00,VWS V14.01,2013-10-21 19:20:00,
2013-10-21 15:25:00,72.0,58.3,30.05,NE,36,0.0,1.0,62,0.00,,---,0.00,338.00,VWS V14.01,2013-10-21 19:25:00,
2013-10-21 15:30:00,72.1,57.9,30.06,NE,36,0.0,1.0,61,0.00,,---,0.00,251.00,VWS V14.01,2013-10-21 19:30:00,
2013-10-21 15:35:00,71.7,58.0,30.06,NE,37,0.0,0.0,62,0.00,,---,0.00,223.00,VWS V14.01,2013-10-21 19:35:00,
2013-10-21 15:40:00,71.5,58.3,30.05,NE,37,0.0,0.0,63,0.00,,---,0.00,218.00,VWS V14.01,2013-10-21 19:40:00,
2013-10-21 15:45:00,71.6,57.9,30.05,NE,37,0.0,1.0,62,0.00,,---,0.00,207.00,VWS V14.01,2013-10-21 19:45:00,
2013-10-21 15:50:00,71.4,57.7,30.05,NE,37,0.0,0.0,62,0.00,,---,0.00,195.00,VWS V14.01,2013-10-21 19:50:00,
2013-10-21 15:55:00,71.2,57.5,30.05,NE,37,0.0,0.0,62,0.00,,---,0.00,188.00,VWS V14.01,2013-10-21 19:55:00,
2013-10-21 16:00:00,71.1,57.9,30.05,NE,37,0.0,0.0,63,0.00,,---,0.00,193.00,VWS V14.01,2013-10-21 20:00:00,
2013-10-21 16:05:00,71.4,57.7,30.05,NE,37,0.0,0.0,62,0.00,,---,0.00,216.00,VWS V14.01,2013-10-21 20:05:00,
2013-10-21 16:10:00,71.4,57.7,30.04,NE,37,0.0,0.0,62,0.00,,---,0.00,209.00,VWS V14.01,2013-10-21 20:10:00,
2013-10-21 16:15:00,71.3,58.1,30.04,NE,37,0.0,0.0,63,0.00,,---,0.00,237.00,VWS V14.01,2013-10-21 20:15:00,
2013-10-21 16:20:00,71.5,58.3,30.04,NE,37,0.0,0.0,63,0.00,,---,0.00,288.00,VWS V14.01,2013-10-21 20:20:00,
2013-10-21 16:21:00,71.6,58.3,30.04,NE,37,0.0,0.0,63,0.00,,---,0.00,272.00,VWS V14.01,2013-10-21 20:21:00,
2013-10-21 16:25:00,71.6,57.5,30.04,NE,37,0.0,0.0,61,0.00,,---,0.00,311.00,VWS V14.01,2013-10-21 20:25:00,
2013-10-21 16:26:00,71.7,58.0,30.04,NE,35,0.0,0.0,62,0.00,,---,0.00,281.00,VWS V14.01,2013-10-21 20:26:00,
2013-10-21 16:30:00,71.6,57.5,30.04,NE,36,1.0,3.0,61,0.00,,---,0.00,206.00,VWS V14.01,2013-10-21 20:30:00,
2013-10-21 16:31:00,71.6,57.9,30.04,NE,36,2.0,2.0,62,0.00,,---,0.00,193.00,VWS V14.01,2013-10-21 20:31:00,
2013-10-21 16:35:00,71.5,57.8,30.04,NE,35,0.0,4.0,62,0.00,,---,0.00,193.00,VWS V14.01,2013-10-21 20:35:00,
2013-10-21 16:36:00,71.5,57.8,30.04,NE,35,0.0,1.0,62,0.00,,---,0.00,193.00,VWS V14.01,2013-10-21 20:36:00,
2013-10-21 16:40:00,71.3,57.6,30.04,NE,35,0.0,1.0,62,0.00,,---,0.00,193.00,VWS V14.01,2013-10-21 20:40:00,
2013-10-21 16:41:00,71.3,57.6,30.04,NE,35,0.0,0.0,62,0.00,,---,0.00,197.00,VWS V14.01,2013-10-21 20:41:00,
2013-10-21 16:45:00,71.5,57.8,30.03,NE,36,0.0,3.0,62,0.00,,---,0.00,202.00,VWS V14.01,2013-10-21 20:45:00,
2013-10-21 16:46:00,71.4,57.7,30.03,NE,36,0.0,0.0,62,0.00,,---,0.00,199.00,VWS V14.01,2013-10-21 20:46:00,
2013-10-21 16:50:00,71.4,57.7,30.03,NE,36,0.0,0.0,62,0.00,,---,0.00,171.00,VWS V14.01,2013-10-21 20:50:00,
2013-10-21 16:51:00,71.3,57.6,30.03,NE,36,0.0,0.0,62,0.00,,---,0.00,158.00,VWS V14.01,2013-10-21 20:51:00,
2013-10-21 16:55:00,71.2,58.0,30.03,NE,36,0.0,0.0,63,0.00,,---,0.00,141.00,VWS V14.01,2013-10-21 20:55:00,
2013-10-21 16:56:00,71.1,57.9,30.03,NE,36,0.0,1.0,63,0.00,,---,0.00,128.00,VWS V14.01,2013-10-21 20:56:00,
2013-10-21 17:00:00,71.0,58.7,30.03,NE,36,0.0,1.0,65,0.00,,---,0.00,111.00,VWS V14.01,2013-10-21 21:00:00,
2013-10-21 17:01:00,70.8,58.5,30.03,NE,36,0.0,0.0,65,0.00,,---,0.00,109.00,VWS V14.01,2013-10-21 21:01:00,
2013-10-21 17:05:00,70.7,57.9,30.03,NE,36,0.0,0.0,64,0.00,,---,0.00,102.00,VWS V14.01,2013-10-21 21:05:00,
2013-10-21 17:06:00,70.7,58.4,30.03,NE,36,0.0,0.0,65,0.00,,---,0.00,100.00,VWS V14.01,2013-10-21 21:06:00,
2013-10-21 17:10:00,70.6,58.3,30.03,NE,36,0.0,0.0,65,0.00,,---,0.00,98.00,VWS V14.01,2013-10-21 21:10:00,
2013-10-21 17:12:00,70.6,58.3,30.03,NE,36,0.0,0.0,65,0.00,,---,0.00,98.00,VWS V14.01,2013-10-21 21:12:00,
2013-10-21 17:15:00,70.5,58.6,30.04,NE,36,0.0,0.0,66,0.00,,---,0.00,91.00,VWS V14.01,2013-10-21 21:15:00,
2013-10-21 17:17:00,70.5,58.6,30.04,NE,36,0.0,0.0,66,0.00,,---,0.00,93.00,VWS V14.01,2013-10-21 21:17:00,
2013-10-21 17:20:00,70.5,59.0,30.03,NE,36,0.0,0.0,67,0.00,,---,0.00,90.00,VWS V14.01,2013-10-21 21:20:00,
2013-10-21 17:22:00,70.4,58.9,30.03,NE,36,0.0,0.0,67,0.00,,---,0.00,90.00,VWS V14.01,2013-10-21 21:22:00,
2013-10-21 17:25:00,70.2,58.3,30.03,NE,36,0.0,0.0,66,0.00,,---,0.00,90.00,VWS V14.01,2013-10-21 21:25:00,
2013-10-21 17:27:00,70.2,58.7,30.03,NE,36,0.0,0.0,67,0.00,,---,0.00,83.00,VWS V14.01,2013-10-21 21:27:00,
2013-10-21 17:30:00,70.1,58.7,30.04,NE,36,0.0,0.0,67,0.00,,---,0.00,72.00,VWS V14.01,2013-10-21 21:30:00,
2013-10-21 17:32:00,70.0,58.5,30.04,NE,36,0.0,0.0,67,0.00,,---,0.00,63.00,VWS V14.01,2013-10-21 21:32:00,
2013-10-21 17:35:00,69.8,58.8,30.03,NE,36,0.0,0.0,68,0.00,,---,0.00,60.00,VWS V14.01,2013-10-21 21:35:00,
2013-10-21 17:37:00,69.7,58.7,30.03,NE,36,0.0,0.0,68,0.00,,---,0.00,60.00,VWS V14.01,2013-10-21 21:37:00,
2013-10-21 17:40:00,69.5,58.5,30.03,NE,36,0.0,0.0,68,0.00,,---,0.00,54.00,VWS V14.01,2013-10-21 21:40:00,
2013-10-21 17:42:00,69.4,58.4,30.03,NE,36,0.0,0.0,68,0.00,,---,0.00,53.00,VWS V14.01,2013-10-21 21:42:00,
2013-10-21 17:45:00,69.3,58.7,30.03,NE,36,0.0,0.0,69,0.00,,---,0.00,51.00,VWS V14.01,2013-10-21 21:45:00,
2013-10-21 17:47:00,69.2,58.6,30.03,NE,36,0.0,0.0,69,0.00,,---,0.00,47.00,VWS V14.01,2013-10-21 21:47:00,
2013-10-21 17:50:00,69.1,58.5,30.04,NE,36,0.0,0.0,69,0.00,,---,0.00,39.00,VWS V14.01,2013-10-21 21:50:00,
2013-10-21 17:52:00,68.9,59.1,30.03,NE,36,0.0,0.0,71,0.00,,---,0.00,37.00,VWS V14.01,2013-10-21 21:52:00,
2013-10-21 17:55:00,68.7,58.9,30.03,NE,36,0.0,0.0,71,0.00,,---,0.00,33.00,VWS V14.01,2013-10-21 21:55:00,
2013-10-21 17:58:00,68.4,59.0,30.03,NE,36,0.0,0.0,72,0.00,,---,0.00,32.00,VWS V14.01,2013-10-21 21:58:00,
2013-10-21 18:00:00,68.3,59.3,30.03,NE,36,0.0,0.0,73,0.00,,---,0.00,28.00,VWS V14.01,2013-10-21 22:00:00,
2013-10-21 18:03:00,68.1,59.5,30.04,NE,36,0.0,0.0,74,0.00,,---,0.00,26.00,VWS V14.01,2013-10-21 22:03:00,
2013-10-21 18:05:00,68.0,59.4,30.04,NE,36,0.0,0.0,74,0.00,,---,0.00,21.00,VWS V14.01,2013-10-21 22:05:00,
2013-10-21 18:08:00,67.8,59.2,30.03,NE,36,0.0,0.0,74,0.00,,---,0.00,23.00,VWS V14.01,2013-10-21 22:08:00,
2013-10-21 18:10:00,67.7,59.1,30.04,NE,36,0.0,0.0,74,0.00,,---,0.00,21.00,VWS V14.01,2013-10-21 22:10:00,
2013-10-21 18:13:00,67.5,59.7,30.04,NE,36,0.0,0.0,76,0.00,,---,0.00,19.00,VWS V14.01,2013-10-21 22:13:00,
2013-10-21 18:15:00,67.3,59.8,30.04,NE,36,0.0,0.0,77,0.00,,---,0.00,18.00,VWS V14.01,2013-10-21 22:15:00,
2013-10-21 18:18:00,67.0,59.6,30.04,NE,36,0.0,0.0,77,0.00,,---,0.00,19.00,VWS V14.01,2013-10-21 22:18:00,
2013-10-21 18:20:00,66.8,59.4,30.04,NE,36,0.0,0.0,77,0.00,,---,0.00,16.00,VWS V14.01,2013-10-21 22:20:00,
2013-10-21 18:23:00,66.7,59.6,30.04,NE,36,0.0,0.0,78,0.00,,---,0.00,11.00,VWS V14.01,2013-10-21 22:23:00,
2013-10-21 18:25:00,66.6,59.5,30.04,NE,36,0.0,0.0,78,0.00,,---,0.00,11.00,VWS V14.01,2013-10-21 22:25:00,
2013-10-21 18:28:00,66.6,59.5,30.04,NE,36,0.0,0.0,78,0.00,,---,0.00,9.00,VWS V14.01,2013-10-21 22:28:00,
2013-10-21 18:30:00,66.5,59.4,30.04,NE,36,0.0,0.0,78,0.00,,---,0.00,9.00,VWS V14.01,2013-10-21 22:30:00,
2013-10-21 18:33:00,66.5,59.4,30.03,NE,36,0.0,0.0,78,0.00,,---,0.00,9.00,VWS V14.01,2013-10-21 22:33:00,
2013-10-21 18:35:00,66.4,59.3,30.03,NE,36,0.0,0.0,78,0.00,,---,0.00,9.00,VWS V14.01,2013-10-21 22:35:00,
2013-10-21 18:38:00,66.3,59.2,30.04,NE,36,0.0,0.0,78,0.00,,---,0.00,5.00,VWS V14.01,2013-10-21 22:38:00,
2013-10-21 18:40:00,66.3,59.2,30.04,NE,36,0.0,0.0,78,0.00,,---,0.00,0.00,VWS V14.01,2013-10-21 22:40:00,
2013-10-21 18:44:00,66.2,59.2,30.03,NE,36,0.0,0.0,78,0.00,,---,0.00,0.00,VWS V14.01,2013-10-21 22:44:00,
2013-10-21 18:45:00,66.1,59.4,30.04,NE,36,0.0,0.0,79,0.00,,---,0.00,0.00,VWS V14.01,2013-10-21 22:45:00,
2013-10-21 18:49:00,65.8,59.1,30.04,NE,36,0.0,0.0,79,0.00,,---,0.00,0.00,VWS V14.01,2013-10-21 22:49:00,
2013-10-21 18:50:00,65.7,59.4,30.04,NE,36,0.0,0.0,80,0.00,,---,0.00,0.00,VWS V14.01,2013-10-21 22:50:00,
2013-10-21 18:54:00,65.3,59.3,30.04,NE,36,0.0,0.0,81,0.00,,---,0.00,0.00,VWS V14.01,2013-10-21 22:54:00,
2013-10-21 18:55:00,65.2,59.2,30.04,NE,36,0.0,0.0,81,0.00,,---,0.00,0.00,VWS V14.01,2013-10-21 22:55:00,
2013-10-21 18:59:00,64.8,59.2,30.04,NE,36,0.0,0.0,82,0.00,,---,0.00,0.00,VWS V14.01,2013-10-21 22:59:00,
2013-10-21 19:00:00,64.7,59.4,30.04,NE,36,0.0,0.0,83,0.00,,---,0.00,0.00,VWS V14.01,2013-10-21 23:00:00,
2013-10-21 19:04:00,64.7,59.4,30.03,NE,36,0.0,0.0,83,0.00,,---,0.00,0.00,VWS V14.01,2013-10-21 23:04:00,
2013-10-21 19:05:00,64.7,59.4,30.03,NE,36,0.0,0.0,83,0.00,,---,0.00,0.00,VWS V14.01,2013-10-21 23:05:00,
2013-10-21 19:09:00,64.5,59.2,30.03,NE,36,0.0,0.0,83,0.00,,---,0.00,0.00,VWS V14.01,2013-10-21 23:09:00,
2013-10-21 19:10:00,64.4,59.1,30.03,NE,36,0.0,0.0,83,0.00,,---,0.00,0.00,VWS V14.01,2013-10-21 23:10:00,
2013-10-21 19:14:00,64.3,59.0,30.03,NE,36,0.0,0.0,83,0.00,,---,0.00,0.00,VWS V14.01,2013-10-21 23:14:00,
2013-10-21 19:15:00,64.3,59.0,30.03,NE,36,0.0,0.0,83,0.00,,---,0.00,0.00,VWS V14.01,2013-10-21 23:15:00,
2013-10-21 19:19:00,64.1,59.2,30.04,NE,36,0.0,0.0,84,0.00,,---,0.00,0.00,VWS V14.01,2013-10-21 23:19:00,
2013-10-21 19:20:00,64.0,59.1,30.04,NE,36,0.0,0.0,84,0.00,,---,0.00,0.00,VWS V14.01,2013-10-21 23:20:00,
2013-10-21 19:24:00,63.7,59.1,30.03,NE,36,0.0,0.0,85,0.00,,---,0.00,0.00,VWS V14.01,2013-10-21 23:24:00,
2013-10-21 19:25:00,63.7,59.1,30.03,NE,36,0.0,0.0,85,0.00,,---,0.00,0.00,VWS V14.01,2013-10-21 23:25:00,
2013-10-21 19:29:00,63.6,59.3,30.03,NE,36,0.0,0.0,86,0.00,,---,0.00,0.00,VWS V14.01,2013-10-21 23:29:00,
2013-10-21 19:30:00,63.6,59.3,30.03,NE,36,0.0,0.0,86,0.00,,---,0.00,0.00,VWS V14.01,2013-10-21 23:30:00,
2013-10-21 19:35:00,63.3,59.0,30.04,NE,36,0.0,0.0,86,0.00,,---,0.00,0.00,VWS V14.01,2013-10-21 23:35:00,
2013-10-21 19:40:00,63.4,59.2,30.03,NE,36,0.0,0.0,86,0.00,,---,0.00,0.00,VWS V14.01,2013-10-21 23:40:00,
2013-10-21 19:45:00,63.4,59.2,30.03,NE,36,0.0,0.0,86,0.00,,---,0.00,0.00,VWS V14.01,2013-10-21 23:45:00,
2013-10-21 19:50:00,63.3,59.0,30.04,NE,36,0.0,0.0,86,0.00,,---,0.00,0.00,VWS V14.01,2013-10-21 23:50:00,
2013-10-21 19:55:00,62.9,59.0,30.04,NE,36,0.0,0.0,87,0.00,,---,0.00,0.00,VWS V14.01,2013-10-21 23:55:00,
2013-10-21 20:00:00,62.7,58.8,30.03,NE,36,0.0,0.0,87,0.00,,---,0.00,0.00,VWS V14.01,2013-10-22 00:00:00,
2013-10-21 20:05:00,62.7,58.8,30.04,NE,36,0.0,0.0,87,0.00,,---,0.00,0.00,VWS V14.01,2013-10-22 00:05:00,
2013-10-21 20:06:00,62.7,58.8,30.03,NE,36,0.0,0.0,87,0.00,,---,0.00,0.00,VWS V14.01,2013-10-22 00:06:00,
2013-10-21 20:10:00,62.7,58.8,30.03,NE,36,0.0,0.0,87,0.00,,---,0.00,0.00,VWS V14.01,2013-10-22 00:10:00,
2013-10-21 20:11:00,62.7,58.8,30.03,NE,36,0.0,0.0,87,0.00,,---,0.00,0.00,VWS V14.01,2013-10-22 00:11:00,
2013-10-21 20:15:00,62.7,58.8,30.04,NE,36,0.0,0.0,87,0.00,,---,0.00,0.00,VWS V14.01,2013-10-22 00:15:00,
2013-10-21 20:16:00,62.7,58.8,30.04,NE,36,0.0,0.0,87,0.00,,---,0.00,0.00,VWS V14.01,2013-10-22 00:16:00,
2013-10-21 20:20:00,62.5,58.6,30.05,NE,36,0.0,0.0,87,0.00,,---,0.00,0.00,VWS V14.01,2013-10-22 00:20:00,
2013-10-21 20:21:00,62.4,58.8,30.05,NE,36,0.0,0.0,88,0.00,,---,0.00,0.00,VWS V14.01,2013-10-22 00:21:00,
2013-10-21 20:25:00,62.3,58.7,30.04,NE,36,0.0,0.0,88,0.00,,---,0.00,0.00,VWS V14.01,2013-10-22 00:25:00,
2013-10-21 20:26:00,62.2,58.6,30.04,NE,36,0.0,0.0,88,0.00,,---,0.00,0.00,VWS V14.01,2013-10-22 00:26:00,
2013-10-21 20:30:00,62.1,58.5,30.04,NE,36,0.0,0.0,88,0.00,,---,0.00,0.00,VWS V14.01,2013-10-22 00:30:00,
2013-10-21 20:32:00,62.0,58.7,30.04,NE,36,0.0,0.0,89,0.00,,---,0.00,0.00,VWS V14.01,2013-10-22 00:32:00,
2013-10-21 20:35:00,62.0,58.7,30.04,NE,36,0.0,0.0,89,0.00,,---,0.00,0.00,VWS V14.01,2013-10-22 00:35:00,
2013-10-21 20:37:00,62.0,58.7,30.04,NE,36,0.0,0.0,89,0.00,,---,0.00,0.00,VWS V14.01,2013-10-22 00:37:00,
2013-10-21 20:40:00,62.0,58.7,30.04,NE,36,0.0,0.0,89,0.00,,---,0.00,0.00,VWS V14.01,2013-10-22 00:40:00,
2013-10-21 20:42:00,61.9,58.6,30.04,NE,36,0.0,0.0,89,0.00,,---,0.00,0.00,VWS V14.01,2013-10-22 00:42:00,
2013-10-21 20:45:00,61.8,58.8,30.04,NE,36,0.0,0.0,90,0.00,,---,0.00,0.00,VWS V14.01,2013-10-22 00:45:00,
2013-10-21 20:47:00,61.7,58.7,30.04,NE,36,0.0,0.0,90,0.00,,---,0.00,0.00,VWS V14.01,2013-10-22 00:47:00,
2013-10-21 20:50:00,61.7,58.7,30.03,NE,36,0.0,0.0,90,0.00,,---,0.00,0.00,VWS V14.01,2013-10-22 00:50:00,
2013-10-21 20:52:00,61.7,58.7,30.03,NE,36,0.0,0.0,90,0.00,,---,0.00,0.00,VWS V14.01,2013-10-22 00:52:00,
2013-10-21 20:55:00,61.6,58.6,30.03,NE,36,0.0,0.0,90,0.00,,---,0.00,0.00,VWS V14.01,2013-10-22 00:55:00,
2013-10-21 20:57:00,61.4,58.5,30.03,NE,36,0.0,0.0,90,0.00,,---,0.00,0.00,VWS V14.01,2013-10-22 00:57:00,
2013-10-21 21:00:00,61.3,58.3,30.03,NE,36,0.0,0.0,90,0.00,,---,0.00,0.00,VWS V14.01,2013-10-22 01:00:00,
2013-10-21 21:02:00,61.2,58.2,30.03,NE,36,0.0,0.0,90,0.00,,---,0.00,0.00,VWS V14.01,2013-10-22 01:02:00,
2013-10-21 21:05:00,61.1,58.5,30.03,NE,36,0.0,0.0,91,0.00,,---,0.00,0.00,VWS V14.01,2013-10-22 01:05:00,
2013-10-21 21:07:00,61.1,58.5,30.03,NE,36,0.0,0.0,91,0.00,,---,0.00,0.00,VWS V14.01,2013-10-22 01:07:00,
2013-10-21 21:10:00,61.0,58.4,30.03,NE,36,0.0,0.0,91,0.00,,---,0.00,0.00,VWS V14.01,2013-10-22 01:10:00,
2013-10-21 21:13:00,61.0,58.4,30.03,NE,36,0.0,0.0,91,0.00,,---,0.00,0.00,VWS V14.01,2013-10-22 01:13:00,
2013-10-21 21:15:00,61.0,58.4,30.03,NE,36,0.0,0.0,91,0.00,,---,0.00,0.00,VWS V14.01,2013-10-22 01:15:00,
2013-10-21 21:18:00,61.0,58.4,30.03,NE,36,0.0,0.0,91,0.00,,---,0.00,0.00,VWS V14.01,2013-10-22 01:18:00,
2013-10-21 21:20:00,60.9,58.3,30.03,NE,36,0.0,0.0,91,0.00,,---,0.00,0.00,VWS V14.01,2013-10-22 01:20:00,
2013-10-21 21:23:00,60.9,58.6,30.03,NE,36,0.0,0.0,92,0.00,,---,0.00,0.00,VWS V14.01,2013-10-22 01:23:00,
2013-10-21 21:25:00,60.9,58.6,30.03,NE,36,0.0,0.0,92,0.00,,---,0.00,0.00,VWS V14.01,2013-10-22 01:25:00,
2013-10-21 21:28:00,60.8,58.5,30.02,NE,36,0.0,0.0,92,0.00,,---,0.00,0.00,VWS V14.01,2013-10-22 01:28:00,
2013-10-21 21:30:00,60.7,58.4,30.02,NE,36,0.0,0.0,92,0.00,,---,0.00,0.00,VWS V14.01,2013-10-22 01:30:00,
2013-10-21 21:33:00,60.6,58.3,30.02,NE,36,0.0,0.0,92,0.00,,---,0.00,0.00,VWS V14.01,2013-10-22 01:33:00,
2013-10-21 21:35:00,60.6,58.3,30.02,NE,36,0.0,0.0,92,0.00,,---,0.00,0.00,VWS V14.01,2013-10-22 01:35:00,
2013-10-21 21:38:00,60.4,58.1,30.02,NE,36,0.0,0.0,92,0.00,,---,0.00,0.00,VWS V14.01,2013-10-22 01:38:00,
2013-10-21 21:40:00,60.4,58.1,30.02,NE,36,0.0,0.0,92,0.00,,---,0.00,0.00,VWS V14.01,2013-10-22 01:40:00,
2013-10-21 21:43:00,60.3,58.0,30.02,NE,36,0.0,0.0,92,0.00,,---,0.00,0.00,VWS V14.01,2013-10-22 01:43:00,
2013-10-21 21:45:00,60.3,58.0,30.02,NE,36,0.0,0.0,92,0.00,,---,0.00,0.00,VWS V14.01,2013-10-22 01:45:00,
2013-10-21 21:48:00,60.3,58.0,30.02,NE,36,0.0,0.0,92,0.00,,---,0.00,0.00,VWS V14.01,2013-10-22 01:48:00,
2013-10-21 21:50:00,60.2,57.9,30.02,NE,36,0.0,0.0,92,0.00,,---,0.00,0.00,VWS V14.01,2013-10-22 01:50:00,
2013-10-21 21:53:00,60.0,57.7,30.02,NE,36,0.0,0.0,92,0.00,,---,0.00,0.00,VWS V14.01,2013-10-22 01:53:00,
2013-10-21 21:54:00,60.0,57.7,30.02,NE,36,0.0,0.0,92,0.00,,---,0.00,0.00,VWS V14.01,2013-10-22 01:54:00,
2013-10-21 21:55:00,60.0,57.7,30.02,NE,36,0.0,0.0,92,0.00,,---,0.00,0.00,VWS V14.01,2013-10-22 01:55:00,
2013-10-21 21:59:00,59.9,57.9,30.02,NE,36,0.0,0.0,93,0.00,,---,0.00,0.00,VWS V14.01,2013-10-22 01:59:00,
2013-10-21 22:00:00,59.9,57.9,30.02,NE,36,0.0,0.0,93,0.00,,---,0.00,0.00,VWS V14.01,2013-10-22 02:00:00,
2013-10-21 22:04:00,59.9,57.9,30.02,NE,36,0.0,0.0,93,0.00,,---,0.00,0.00,VWS V14.01,2013-10-22 02:04:00,
2013-10-21 22:05:00,59.9,57.9,30.02,NE,36,0.0,0.0,93,0.00,,---,0.00,0.00,VWS V14.01,2013-10-22 02:05:00,
2013-10-21 22:09:00,59.8,57.8,30.02,NE,36,0.0,0.0,93,0.00,,---,0.00,0.00,VWS V14.01,2013-10-22 02:09:00,
2013-10-21 22:10:00,59.8,57.8,30.02,NE,36,0.0,0.0,93,0.00,,---,0.00,0.00,VWS V14.01,2013-10-22 02:10:00,
2013-10-21 22:15:00,59.6,57.6,30.03,NE,36,0.0,0.0,93,0.00,,---,0.00,0.00,VWS V14.01,2013-10-22 02:15:00,
2013-10-21 22:20:00,59.4,57.4,30.04,NE,36,0.0,0.0,93,0.00,,---,0.00,0.00,VWS V14.01,2013-10-22 02:20:00,
2013-10-21 22:25:00,59.2,57.5,30.04,NE,36,0.0,0.0,94,0.00,,---,0.00,0.00,VWS V14.01,2013-10-22 02:25:00,
2013-10-21 22:30:00,59.5,57.8,30.03,NE,36,0.0,0.0,94,0.00,,---,0.00,0.00,VWS V14.01,2013-10-22 02:30:00,
2013-10-21 22:35:00,59.7,58.0,30.03,NE,36,0.0,0.0,94,0.00,,---,0.00,0.00,VWS V14.01,2013-10-22 02:35:00,
2013-10-21 22:40:00,59.7,58.0,30.03,NE,36,0.0,0.0,94,0.00,,---,0.00,0.00,VWS V14.01,2013-10-22 02:40:00,
2013-10-21 22:45:00,59.6,57.9,30.04,NE,36,0.0,0.0,94,0.00,,---,0.00,0.00,VWS V14.01,2013-10-22 02:45:00,
2013-10-21 22:50:00,59.4,57.7,30.04,NE,36,0.0,0.0,94,0.00,,---,0.00,0.00,VWS V14.01,2013-10-22 02:50:00,
2013-10-21 22:55:00,59.3,57.6,30.04,NE,36,0.0,0.0,94,0.00,,---,0.00,0.00,VWS V14.01,2013-10-22 02:55:00,
2013-10-21 23:00:00,59.3,57.6,30.03,NE,36,0.0,0.0,94,0.00,,---,0.00,0.00,VWS V14.01,2013-10-22 03:00:00,
2013-10-21 23:05:00,59.3,57.6,30.03,NE,36,0.0,0.0,94,0.00,,---,0.00,0.00,VWS V14.01,2013-10-22 03:05:00,
2013-10-21 23:10:00,59.3,57.6,30.03,NE,36,0.0,0.0,94,0.00,,---,0.00,0.00,VWS V14.01,2013-10-22 03:10:00,
2013-10-21 23:15:00,59.3,57.6,30.03,NE,36,0.0,0.0,94,0.00,,---,0.00,0.00,VWS V14.01,2013-10-22 03:15:00,
2013-10-21 23:20:00,59.0,57.3,30.04,NE,36,0.0,0.0,94,0.00,,---,0.00,0.00,VWS V14.01,2013-10-22 03:20:00,
2013-10-21 23:25:00,59.1,57.4,30.04,NE,36,0.0,0.0,94,0.00,,---,0.00,0.00,VWS V14.01,2013-10-22 03:25:00,
2013-10-21 23:30:00,59.3,57.9,30.03,NE,36,0.0,0.0,95,0.00,,---,0.00,0.00,VWS V14.01,2013-10-22 03:30:00,
2013-10-21 23:35:00,59.2,57.8,30.03,NE,36,0.0,0.0,95,0.00,,---,0.00,0.00,VWS V14.01,2013-10-22 03:35:00,
2013-10-21 23:36:00,59.2,57.8,30.03,NE,36,0.0,0.0,95,0.00,,---,0.00,0.00,VWS V14.01,2013-10-22 03:36:00,
2013-10-21 23:40:00,59.2,57.8,30.03,NE,36,0.0,0.0,95,0.00,,---,0.00,0.00,VWS V14.01,2013-10-22 03:40:00,
2013-10-21 23:41:00,59.2,57.8,30.02,NE,36,0.0,0.0,95,0.00,,---,0.00,0.00,VWS V14.01,2013-10-22 03:41:00,
2013-10-21 23:45:00,59.3,57.9,30.02,NE,36,0.0,0.0,95,0.00,,---,0.00,0.00,VWS V14.01,2013-10-22 03:45:00,
2013-10-21 23:46:00,59.3,57.9,30.02,NE,36,0.0,0.0,95,0.00,,---,0.00,0.00,VWS V14.01,2013-10-22 03:46:00,
2013-10-21 23:50:00,59.2,57.5,30.03,NE,36,0.0,0.0,94,0.00,,---,0.00,0.00,VWS V14.01,2013-10-22 03:50:00,
2013-10-21 23:51:00,59.2,57.5,30.03,NE,36,0.0,0.0,94,0.00,,---,0.00,0.00,VWS V14.01,2013-10-22 03:51:00,
2013-10-21 23:55:00,59.1,57.4,30.03,NE,36,0.0,0.0,94,0.00,,---,0.00,0.00,VWS V14.01,2013-10-22 03:55:00,
2013-10-21 23:56:00,59.1,57.4,30.04,NE,36,0.0,0.0,94,0.00,,---,0.00,0.00,VWS V14.01,2013-10-22 03:56:00,